Weather History for Phoenix, AZ

Change the Weather History Date:

Tuesday, November 20, 2012

  Actual Average Record
Temperature  
Mean Temperature 70 °F 62 °F  
Max Temperature 84 °F 73 °F 89 °F (2006)
Min Temperature 55 °F 51 °F 31 °F (1956)
Degree Days  
Heating Degree Days 0 4  
Month to date heating degree days 27 42  
Since 1 July heating degree days 27 48  
Cooling Degree Days 5 1  
Month to date cooling degree days 101 64  
Year to date cooling degree days 5029 4600  
Growing Degree Days 20 (Base 50)    
Moisture  
Dew Point 35 °F    
Average Humidity 33    
Maximum Humidity 51    
Minimum Humidity 15    
Precipitation  
Precipitation 0.00 in 0.03 in 1.16 in (1902)
Month to date precipitation 0.05 0.39  
Year to date precipitation 3.41 6.89  
Snow  
Snow 0.00 in - - ()
Month to date snowfall 0.0  
Year to date snowfall 0.0  
Since 1 July snowfall 0.0  
Snow Depth 0.00 in    
Sea Level Pressure  
Sea Level Pressure 30.03 in    
Wind  
Wind Speed 3 mph (East)    
Max Wind Speed 15 mph    
Max Gust Speed 20 mph    
Visibility 10 miles    
Events      
T = Trace of Precipitation, MM = Missing Value Source: NWS Daily Summary

Daily Weather History Graph

Daily Weather History Graph

Search for Another Location

Airport:

Trip Planner

Search our weather history database for the weather conditions in past years. The results will help you decide how hot, cold, wet, or windy it might be!

Date:

Astronomy

Nov. 20, 2012 Rise Set
Actual Time 7:04 AM MST 5:22 PM MST
Civil Twilight 6:37 AM MST 5:49 PM MST
Nautical Twilight 6:07 AM MST 6:19 PM MST
Astronomical Twilight 5:37 AM MST 6:49 PM MST
Moon 12:51 PM MST (11/20) No Moon Set
Length of Visible Light 11h 11m
Length of Day
10h 18m
First Quarter, 52% of the Moon is Illuminated
Nov 20
First Quarter
Nov 28
Full
Dec 6
Last Quarter
Dec 13
New
Dec 19
First Quarter

Hourly Weather History & Observations

Time (MST) Temp. Dew Point Humidity Pressure Visibility Wind Dir Wind Speed Gust Speed Precip Events Conditions
12:51 AM 57.9 °F 39.9 °F 51% 30.10 in 10.0 mi Calm Calm - N/A   Clear
1:51 AM 61.0 °F 39.0 °F 44% 30.09 in 10.0 mi Calm Calm - N/A   Clear
2:51 AM 59.0 °F 39.0 °F 48% 30.09 in 10.0 mi Calm Calm - N/A   Clear
3:51 AM 57.9 °F 39.0 °F 49% 30.08 in 10.0 mi Calm Calm - N/A   Clear
4:51 AM 57.9 °F 37.0 °F 46% 30.08 in 10.0 mi Calm Calm - N/A   Clear
5:51 AM 57.0 °F 36.0 °F 45% 30.08 in 10.0 mi SSE 3.5 mph - N/A   Partly Cloudy
6:51 AM 55.9 °F 36.0 °F 47% 30.10 in 10.0 mi Calm Calm - N/A   Partly Cloudy
7:51 AM 59.0 °F 36.0 °F 42% 30.12 in 10.0 mi Calm Calm - N/A   Scattered Clouds
8:51 AM 64.0 °F 35.1 °F 34% 30.11 in 10.0 mi East 8.1 mph - N/A   Scattered Clouds
9:51 AM 68.0 °F 35.1 °F 30% 30.11 in 10.0 mi East 5.8 mph - N/A   Partly Cloudy
10:51 AM 73.4 °F 33.8 °F 23% 30.12 in 10.0 mi ENE 12.7 mph - N/A   Partly Cloudy
11:51 AM 75.9 °F 33.1 °F 21% 30.05 in 10.0 mi NE 6.9 mph - N/A   Partly Cloudy
12:51 PM 80.1 °F 33.1 °F 18% 30.01 in 10.0 mi East 10.4 mph - N/A   Partly Cloudy
1:51 PM 82.9 °F 34.0 °F 17% 29.97 in 10.0 mi East 8.1 mph - N/A   Partly Cloudy
2:51 PM 82.0 °F 33.1 °F 17% 29.95 in 10.0 mi Calm Calm - N/A   Partly Cloudy
3:51 PM 82.9 °F 30.9 °F 15% 29.94 in 10.0 mi ESE 4.6 mph - N/A   Scattered Clouds
4:51 PM 81.0 °F 32.0 °F 17% 29.94 in 10.0 mi Calm Calm - N/A   Scattered Clouds
5:51 PM 79.0 °F 33.1 °F 19% 29.95 in 10.0 mi North 4.6 mph - N/A   Scattered Clouds
6:51 PM 73.9 °F 34.0 °F 23% 29.96 in 10.0 mi Calm Calm - N/A   Scattered Clouds
7:51 PM 70.0 °F 35.1 °F 28% 29.96 in 10.0 mi WSW 4.6 mph - N/A   Scattered Clouds
8:51 PM 68.0 °F 36.0 °F 31% 29.96 in 10.0 mi Calm Calm - N/A   Scattered Clouds
9:51 PM 64.9 °F 36.0 °F 34% 29.97 in 10.0 mi SW 3.5 mph - N/A   Scattered Clouds
10:51 PM 66.9 °F 36.0 °F 32% 29.96 in 10.0 mi West 3.5 mph - N/A   Scattered Clouds
11:51 PM 63.0 °F 37.0 °F 38% 29.96 in 10.0 mi SW 4.6 mph - N/A   Mostly Cloudy